Weather History for Ozark, AL

Change the Weather History Date:

Friday, December 28, 2012

  Actual Average Record
Temperature  
Mean Temperature 44 °F -  
Max Temperature 55 °F 58 °F 76 °F (2007)
Min Temperature 32 °F 37 °F 20 °F (2010)
Degree Days  
Heating Degree Days 22    
Moisture  
Dew Point 44 °F    
Average Humidity 84    
Maximum Humidity 100    
Minimum Humidity 58    
Precipitation  
Precipitation 0.50 in - - ()
Sea Level Pressure  
Sea Level Pressure 29.89 in    
Wind  
Wind Speed 5 mph (ESE)    
Max Wind Speed 17 mph    
Max Gust Speed 24 mph    
Visibility 7 miles    
Events Rain    
Averages and records for this station are not official NWS values.
T = Trace of Precipitation, MM = Missing Value Source: NWS Daily Summary

Daily Weather History Graph

Daily Weather History Graph

Search for Another Location

Airport:

Trip Planner

Search our weather history database for the weather conditions in past years. The results will help you decide how hot, cold, wet, or windy it might be!

Date:

Astronomy

Dec. 28, 2012 Rise Set
Actual Time 6:40 AM CST 4:48 PM CST
Civil Twilight 6:13 AM CST 5:15 PM CST
Nautical Twilight 5:43 AM CST 5:45 PM CST
Astronomical Twilight 5:14 AM CST 6:15 PM CST
Moon 5:21 PM CST (12/28) 6:37 AM CST (12/28)
Length of Visible Light 11h 01m
Length of Day
10h 08m
Full, 100% of the Moon is Illuminated
Dec 28
Full
Jan 4
Last Quarter
Jan 11
New
Jan 18
First Quarter
Jan 26
Full

Hourly Weather History & Observations

Time (CST) Temp. Windchill Dew Point Humidity Pressure Visibility Wind Dir Wind Speed Gust Speed Precip Events Conditions
12:55 AM 33.6 °F - 31.5 °F 92% 30.10 in 10.0 mi Calm Calm - N/A   Clear
1:55 AM 32.2 °F - 30.4 °F 93% 30.11 in 10.0 mi Calm Calm - N/A   Clear
2:55 AM 32.9 °F 28.5 °F 31.1 °F 93% 30.09 in 10.0 mi East 4.6 mph - N/A   Clear
3:55 AM 33.6 °F - 31.5 °F 92% 30.09 in 10.0 mi Calm Calm - N/A   Mostly Cloudy
4:55 AM 34.2 °F 31.2 °F 31.5 °F 90% 30.09 in 10.0 mi ENE 3.5 mph - N/A   Mostly Cloudy
5:55 AM 33.3 °F 30.2 °F 31.3 °F 92% 30.10 in 10.0 mi East 3.5 mph - N/A   Mostly Cloudy
6:55 AM 34.9 °F 32.0 °F 32.7 °F 92% 30.08 in 10.0 mi East 3.5 mph - N/A   Clear
7:55 AM 38.8 °F 35.4 °F 34.3 °F 84% 30.05 in 10.0 mi East 4.6 mph - N/A   Mostly Cloudy
8:55 AM 41.7 °F - 35.6 °F 79% 30.08 in 10.0 mi Calm Calm - N/A   Overcast
9:55 AM 47.3 °F - 36.7 °F 67% 30.06 in 10.0 mi ESE 8.1 mph - N/A   Partly Cloudy
10:55 AM 50.5 °F - 36.5 °F 59% 30.05 in 10.0 mi East 4.6 mph - N/A   Clear
11:55 AM 52.2 °F - 38.5 °F 60% 30.01 in 10.0 mi NNE 3.5 mph - N/A   Clear
12:55 PM 54.9 °F - 40.5 °F 58% 29.98 in 10.0 mi East 4.6 mph - N/A   Clear
1:55 PM 55.4 °F - 41.9 °F 60% 29.95 in 10.0 mi East 5.8 mph - N/A   Scattered Clouds
2:55 PM 54.9 °F - 42.1 °F 62% 29.95 in 10.0 mi ESE 5.8 mph - N/A   Mostly Cloudy
3:55 PM 53.4 °F - 42.1 °F 65% 29.94 in 10.0 mi East 4.6 mph - N/A   Mostly Cloudy
4:55 PM 52.0 °F - 43.2 °F 72% 29.91 in 10.0 mi East 6.9 mph - N/A   Mostly Cloudy
5:55 PM 51.8 °F - 43.5 °F 73% 29.90 in 10.0 mi East 8.1 mph - N/A   Overcast
6:52 PM 51.8 °F - 42.8 °F 71% 29.91 in 5.0 mi ESE 9.2 mph - N/A   Haze
6:55 PM 52.3 °F - 43.0 °F 70% 29.90 in 5.0 mi ESE 8.1 mph - N/A   Haze
7:15 PM 51.8 °F - 42.8 °F 71% 29.90 in 6.0 mi ESE 8.1 mph - N/A   Haze
7:55 PM 52.7 °F - 41.7 °F 66% 29.86 in 10.0 mi ESE 11.5 mph - N/A   Overcast
8:00 PM 53.6 °F - 41.0 °F 62% 29.86 in 10.0 mi ESE 10.4 mph - N/A Rain Light Rain
8:13 PM 51.8 °F - 42.8 °F 71% 29.85 in 10.0 mi ESE 9.2 mph - N/A   Overcast
8:48 PM 51.8 °F - 42.8 °F 71% 29.84 in 10.0 mi ESE 6.9 mph - N/A Rain Light Rain
8:55 PM 51.8 °F - 44.6 °F 76% 29.83 in 10.0 mi East 6.9 mph - 0.00 in Rain Light Rain
9:08 PM 51.8 °F - 46.4 °F 82% 29.83 in 10.0 mi ESE 4.6 mph - N/A   Overcast
9:09 PM 51.8 °F - 46.4 °F 82% 29.83 in 10.0 mi ESE 3.5 mph - N/A Rain Light Rain
9:24 PM 50.0 °F - 46.4 °F 87% 29.83 in 10.0 mi East 6.9 mph - N/A   Light Drizzle
9:47 PM 50.0 °F - 48.2 °F 94% 29.82 in 10.0 mi East 5.8 mph - N/A   Overcast
9:54 PM 50.0 °F - 48.2 °F 94% 29.82 in 10.0 mi East 8.1 mph - N/A   Light Drizzle
9:55 PM 50.4 °F - 47.8 °F 91% 29.82 in 10.0 mi East 8.1 mph - 0.02 in   Light Drizzle
10:04 PM 50.0 °F - 48.2 °F 94% 29.81 in 9.0 mi ESE 10.4 mph - N/A Rain Light Rain
10:29 PM 50.0 °F - 48.2 °F 94% 29.80 in 2.5 mi Variable 3.5 mph - N/A Rain Heavy Rain
10:38 PM 50.0 °F - 48.2 °F 94% 29.80 in 3.0 mi ESE 5.8 mph - N/A Rain Light Rain
10:55 PM 50.9 °F - 49.3 °F 94% 29.78 in 5.0 mi SE 10.4 mph - 0.25 in Rain Light Rain
10:58 PM 50.0 °F - 50.0 °F 100% 29.77 in 5.0 mi SE 10.4 mph - N/A Rain Light Rain
11:05 PM 51.8 °F - 50.0 °F 94% 29.77 in 9.0 mi ESE 5.8 mph - N/A Rain Light Rain
11:06 PM 51.8 °F - 50.0 °F 94% 29.77 in 9.0 mi ESE 6.9 mph - N/A Rain Light Rain
11:09 PM 51.8 °F - 50.0 °F 94% 29.77 in 9.0 mi ESE 6.9 mph - N/A Rain Light Rain
11:34 PM 51.8 °F - 50.0 °F 94% 29.81 in 4.0 mi West 17.3 mph 24.2 mph N/A Rain Rain
11:36 PM 51.8 °F - 50.0 °F 94% 29.78 in 3.0 mi West 9.2 mph 24.2 mph N/A Rain Heavy Rain
11:38 PM 51.8 °F - 50.0 °F 94% 29.81 in 2.5 mi West 13.8 mph 24.2 mph N/A Rain Heavy Rain
11:41 PM 51.8 °F - 50.0 °F 94% 29.81 in 2.0 mi West 9.2 mph 24.2 mph N/A Rain Heavy Rain
11:43 PM 51.8 °F - 50.0 °F 94% 29.81 in 2.0 mi West 11.5 mph 24.2 mph N/A Rain Heavy Rain
11:44 PM 51.8 °F - 50.0 °F 94% 29.81 in 1.8 mi West 6.9 mph 24.2 mph N/A Rain Heavy Rain
11:45 PM 51.8 °F - 50.0 °F 94% 29.81 in 1.8 mi WSW 6.9 mph 19.6 mph N/A Rain Heavy Rain
11:46 PM 51.8 °F - 50.0 °F 94% 29.82 in 2.0 mi WSW 10.4 mph 19.6 mph N/A Rain Heavy Rain
11:49 PM 51.8 °F - 50.0 °F 94% 29.82 in 2.0 mi Variable 6.9 mph - N/A Rain Rain
11:50 PM 51.8 °F - 50.0 °F 94% 29.82 in 2.5 mi West 10.4 mph - N/A Rain Rain
11:51 PM 51.8 °F - 50.0 °F 94% 29.81 in 2.5 mi West 9.2 mph - N/A Rain Rain
11:52 PM 51.8 °F - 50.0 °F 94% 29.81 in 3.0 mi WSW 5.8 mph - N/A Rain Rain
11:53 PM 51.8 °F - 50.0 °F 94% 29.81 in 3.0 mi WSW 4.6 mph - N/A Rain Rain
11:55 PM 51.8 °F - 50.7 °F 96% 29.81 in 4.0 mi WSW 5.8 mph - 0.23 in Rain Rain
11:59 PM 51.8 °F - 50.0 °F 94% 29.80 in 4.0 mi Calm Calm - N/A Rain Rain